Weather History for KCPS - June, 2013

Change the Weather History Date:

Saturday, June 15, 2013

  Actual Average Record
Temperature  
Mean Temperature 78 °F -  
Max Temperature 90 °F 89 °F 101 °F (1952)
Min Temperature 66 °F 70 °F 52 °F (1999)
Cooling Degree Days 13    
Growing Degree Days 28 (Base 50)    
Moisture  
Dew Point 65 °F    
Average Humidity 69    
Maximum Humidity 94    
Minimum Humidity 45    
Precipitation  
Precipitation 0.09 in - - ()
Sea Level Pressure  
Sea Level Pressure 30.00 in    
Wind  
Wind Speed 5 mph (SW)    
Max Wind Speed 24 mph    
Max Gust Speed 37 mph    
Visibility 10 miles    
Events Rain , Thunderstorm    
Averages and records for this station are not official NWS values.
T = Trace of Precipitation, MM = Missing Value Source: NWS Daily Summary

Daily Weather History Graph

Daily Weather History Graph

Search for Another Location

Airport or City:

Trip Planner

Search our weather history database for the weather conditions in past years. The results will help you decide how hot, cold, wet, or windy it might be!

Date:

Astronomy

Jun. 15, 2013 Rise Set
Actual Time 5:35 AM CDT 8:26 PM CDT
Civil Twilight 5:03 AM CDT 8:58 PM CDT
Nautical Twilight 4:23 AM CDT 9:38 PM CDT
Astronomical Twilight 3:38 AM CDT 10:24 PM CDT
Moon 12:06 PM CDT (6/15) 12:06 AM CDT (6/15)
Length of Visible Light 15h 54m
Length of Day
14h 51m
Waxing Crescent, 40% of the Moon is Illuminated
Jun 15
Waxing Crescent
Jun 16
First Quarter
Jun 23
Full
Jun 29
Last Quarter
Jul 8
New

Hourly Weather History & Observations

Time (CDT) Temp. Heat Index Dew Point Humidity Pressure Visibility Wind Dir Wind Speed Gust Speed Precip Events Conditions
12:53 AM 70.0 °F - 61.0 °F 73% 30.00 in 10.0 mi SSE 5.8 mph - N/A   Clear
1:53 AM 71.1 °F - 60.1 °F 68% 30.00 in 10.0 mi SSE 4.6 mph - N/A   Clear
2:53 AM 71.1 °F - 60.1 °F 68% 30.01 in 10.0 mi Calm Calm - N/A   Clear
3:53 AM 69.1 °F - 60.1 °F 73% 30.02 in 10.0 mi Calm Calm - N/A   Clear
4:53 AM 66.0 °F - 61.0 °F 84% 30.03 in 10.0 mi Calm Calm - N/A   Clear
5:53 AM 66.9 °F - 60.1 °F 79% 30.08 in 10.0 mi Calm Calm - N/A   Partly Cloudy
6:53 AM 70.0 °F - 61.0 °F 73% 30.05 in 10.0 mi South 3.5 mph - N/A   Mostly Cloudy
7:53 AM 72.0 °F - 61.0 °F 68% 29.99 in 10.0 mi South 6.9 mph - N/A   Scattered Clouds
8:53 AM 75.9 °F - 61.0 °F 60% 30.01 in 10.0 mi SSW 6.9 mph - N/A   Clear
9:53 AM 79.0 °F - 62.1 °F 56% 30.00 in 10.0 mi Variable 6.9 mph - N/A   Clear
10:53 AM 81.0 °F 82.2 °F 63.0 °F 54% 30.00 in 10.0 mi Variable 4.6 mph - N/A   Clear
11:53 AM 82.9 °F 84.0 °F 63.0 °F 51% 30.01 in 10.0 mi SSW 10.4 mph 17.3 mph N/A   Clear
12:53 PM 86.0 °F 87.6 °F 64.9 °F 49% 29.99 in 10.0 mi South 6.9 mph - N/A   Clear
1:53 PM 87.1 °F 88.9 °F 64.9 °F 48% 29.97 in 10.0 mi SSW 4.6 mph - N/A   Clear
2:53 PM 90.0 °F 92.4 °F 66.0 °F 45% 29.97 in 10.0 mi SSW 6.9 mph - N/A   Partly Cloudy
3:53 PM 89.1 °F 91.3 °F 66.0 °F 46% 29.96 in 10.0 mi SW 5.8 mph - N/A   Clear
4:53 PM 89.1 °F 92.9 °F 68.0 °F 50% 29.94 in 10.0 mi SSW 5.8 mph - N/A   Mostly Cloudy
5:53 PM 84.9 °F 88.2 °F 68.0 °F 57% 29.94 in 10.0 mi South 6.9 mph - N/A   Overcast
6:53 PM 81.0 °F 83.8 °F 68.0 °F 65% 29.94 in 10.0 mi SSW 4.6 mph - N/A   Mostly Cloudy
7:53 PM 80.1 °F 82.9 °F 69.1 °F 69% 29.95 in 10.0 mi Calm Calm - 0.00 in   Partly Cloudy
8:07 PM 80.6 °F 83.9 °F 69.8 °F 70% 29.96 in 10.0 mi Calm Calm - N/A Thunderstorm Overcast
8:53 PM 75.0 °F - 68.0 °F 79% 30.00 in 10.0 mi NW 24.2 mph 36.8 mph 0.01 in Rain , Thunderstorm Light Thunderstorms and Rain
9:29 PM 71.6 °F - 69.8 °F 94% 30.04 in 2.5 mi NW 8.1 mph - 0.08 in Rain , Thunderstorm Light Thunderstorms and Rain
9:36 PM 71.6 °F - 68.0 °F 88% 30.03 in 10.0 mi NW 11.5 mph - 0.08 in Rain , Thunderstorm Light Rain
9:51 PM 71.6 °F - 69.8 °F 94% 30.03 in 10.0 mi NW 11.5 mph - 0.08 in   Overcast
9:53 PM 72.0 °F - 69.1 °F 91% 30.02 in 10.0 mi NW 11.5 mph - 0.08 in   Mostly Cloudy
10:53 PM 71.1 °F - 68.0 °F 90% 30.03 in 10.0 mi North 8.1 mph - 0.00 in   Scattered Clouds
11:53 PM 71.1 °F - 66.9 °F 87% 30.04 in 10.0 mi Calm Calm - N/A   Partly Cloudy